Location: Klein M�hlingen
(51.9472°N, 11.7453°E)
Time: 17:21:30
(UTC+00:00)

ATLAS CENTAUR R/B - Pass Details

Date: 09 April 2020
Orbit: 471 x 675 km, 64.7° (Epoch: 01 June)

Event Time Altitude Azimuth Distance (km) Brightness Sun altitude
Rises 21:54:57 0° 307° (NW) 2,651 5.7 -27.7°
Reaches altitude 10° 21:57:39 10° 289° (WNW) 1,723 4.3 -27.8°
Enters shadow 21:58:37 14° 277° (W) 1,467 3.8 -27.9°
